Flag for Switzerland Weather past 2 weeks in Basel, Basel-Stadt, Switzerland

Now
47 °F

Low clouds.


Feels Like: 45 °F
Forecast: 49 / 54 °F
Wind: 6 mph from Southeast

Location: Bale-Mulhouse

Current Time: Mar 29, 2015 at 12:19:21 AM

Latest Report: Mar 28, 2015 at 11:00 PM


Visibility: 4 mi

Pressure: 30.09 "Hg

Humidity: 96%

Dew point: 46 °F

Location of BaselLocation

Historic Weather in Basel — Graph

°F

Basel temperature yesterday

Maximum temperature yesterday: 56 °F (at 1:00 PM)
Minimum temperature yesterday: 31 °F (at 4:00 AM)
Average temperature yesterday: 44 °F

Past Weeks' High & Low Weather Summary

 TemperatureHumidityPressure
High64 °F (Mar 18, 4:00 PM)100% (Mar 15, 7:00 AM)30.32 "Hg (Mar 15, 7:00 AM)
Low28 °F (Mar 15, 3:00 AM)36% (Mar 17, 3:00 PM)29.66 "Hg (Mar 25, 10:00 AM)
Average45 °F72%30.08 "Hg
* Reported Mar 13 11:00 PM — Mar 28 11:00 PM, Basel, Weather by CustomWeather, © 2015

Note: Actual official high and low records may vary slightly from our data, if they occured in-between our weather recording intervals... More about our weather records

Advertising

Basel weather history for previous 24 hours

 ConditionsComfort  
Time TempWeatherWind HumidityBarometerVisibility
11:00 PM
Sat, Mar 28
47 °FLow clouds.6 mph96%30.09 "Hg4 mi
9:00 PM47 °FLow clouds.2 mph96%30.15 "Hg4 mi
8:00 PM47 °FLow clouds.3 mph95%30.15 "Hg5 mi
7:00 PM47 °FLight rain. Overcast.3 mph91%30.14 "Hg4 mi
6:00 PM49 °FOvercast.6 mph81%30.14 "Hg6 mi
5:00 PM50 °FLight rain. Overcast.7 mph73%30.13 "Hg8 mi
4:00 PM52 °FLight rain. Overcast.8 mph64%30.12 "Hg10 mi
3:00 PM54 °FLight rain. Overcast.10 mph50%30.12 "Hg22 mi
2:00 PM56 °FOvercast.9 mph43%30.13 "Hg22 mi
1:00 PM56 °FOvercast.8 mph42%30.15 "Hg28 mi
12:00 PM55 °FOvercast.3 mph47%30.18 "Hg28 mi
11:00 AM53 °FOvercast.3 mph45%30.20 "Hg19 mi
10:00 AM49 °FScattered clouds.3 mph56%30.24 "Hg16 mi
9:00 AM44 °FPassing clouds.6 mph67%30.26 "Hg16 mi
8:00 AM39 °FPassing clouds.6 mph81%30.28 "Hg19 mi
7:00 AM34 °FPassing clouds.5 mph91%30.30 "Hg12 mi
6:00 AM33 °FFog.5 mph92%30.31 "Hg9 mi
5:00 AM32 °FOvercast.2 mph92%30.31 "Hg9 mi
4:00 AM31 °FChilly.2 mph95%30.32 "Hg9 mi
3:00 AM32 °FChilly.2 mph93%30.32 "Hg11 mi
2:00 AM34 °FChilly.2 mph89%30.32 "Hg13 mi
1:00 AM34 °FChilly.3 mph91%30.32 "Hg12 mi
12:00 AM35 °FPassing clouds.3 mph84%30.32 "Hg19 mi
Weather by CustomWeather, © 2015

See weather overviewHow to use our weather pages